LARES (38077 NORAD) Tracking and Keplerian Element Data

This shows tracking and keplerian element data for the satellite.

Feedback or suggestion? Click here.




ElementValue
Catalog38077
NameLARES
Epoch Orbit31001
Epoch Day323.18720292
Epoch Year2018
RAAN338.5238
Inclination69.4932
Eccentricity0.0008102
Argument of Perigee149.658
Mean Anonmoly210.4913
Mean Motion12.54930778
Decay Rate-4.2E-07
L11 38077U 12006A 18323.18720292 -.00000042 00000-0 -22821-4 0 9999
L22 38077 69.4932 338.5238 0008102 149.6580 210.4913 12.54930778310017

Live tracking and technical data element details for LARES (NORAD 38077). LARES can be tracked NOW for your location showing map with azimuth and elevation plus other details from your city location.

Track the satellite on the map from your city or location and see movement details for azimuth, elevation, latitude, longitude, range, height, and movement on the map or in text.







IsCatalogInMostPopularTable: catalog: 38077, numindb: 57
Update: records affected: 1



GetName: 38077 LARES

Hit Count: updated at: Wed, 21 Nov 2018 06:02:38 GMT